Hourly Weather Roundup
Issued by NWS

Home | Current Version | Previous Version | Text Only | Print | Product List | Glossary On
Versions: 1 2 3 4 5 6 7 8 9 10 11 12 13 14 15 16 17 18 19 20 21 22 23 24 25 26 27 28 29 30 31 32 33 34 35 36 37 38 39 40 41 42 43 44 45 46 47 48 49 50
069
NZUS43 KILX 231410
HWRCRS

NWR Hourly Weather Roundup
National Weather Service Lincoln IL
900 AM CDT SUN APR 23 2017


CITY           SKY/WX    TMP DP  RH WIND       PRES   REMARKS
Champaign      SUNNY     55  31  39 NE13      30.11F
Lawrenceville  SUNNY     52  38  58 NE15      30.07R
Peoria         SUNNY     54  33  45 NE3       30.16S
Springfield    SUNNY     55  34  45 NE8       30.13F
$$


CITY           SKY/WX    TMP DP  RH WIND       PRES   REMARKS
Bloomington    SUNNY     53  33  46 NE9       30.14F
Danville       SUNNY     53  32  44 NE9       30.09F
Decatur        SUNNY     54  35  48 NE13      30.12F
Effingham      SUNNY     51  36  55 N6        30.11S
Flora          SUNNY     51  37  60 N12G17    30.09R
Galesburg      SUNNY     55  31  41 NW3       30.15F
Jacksonville   SUNNY     53  31  44 NE9       30.13F
Lacon          SUNNY     50  35  57 NW5       30.16S
La Salle       SUNNY     51  27  39 CALM      30.17S
Lincoln        SUNNY     56  35  45 NE9       30.14S
Litchfield     SUNNY     51  33  48 NE13      30.11F

CITY           SKY/WX    TMP DP  RH WIND       PRES   REMARKS
Macomb         SUNNY     55  31  41 NE5       30.18F
Mattoon        SUNNY     52  36  54 NE13      30.09F
Moline         SUNNY     55  41  59 CALM      30.16F
Olney          SUNNY     51  39  65 NE8G17    30.08S
Paris          SUNNY     53  35  50 NE15      30.11S
Pontiac        SUNNY     56  30  37 E5        30.16S
Quincy         SUNNY     54  32  43 NE8       30.16R
Rantoul        SUNNY     55  34  43 NE9       30.12F
Robinson       SUNNY     50  37  60 NE13G18   30.09S
Taylorville    SUNNY     53  32  44 E13       30.12F
Terre Haute    SUNNY     53  35  50 NE15      30.09R
$$


CITY           SKY/WX    TMP DP  RH WIND       PRES   REMARKS
Burlington     SUNNY     57  33  40 N5        30.16F
Chicago        MOSUNNY   55  26  32 W3        30.14F
Des Moines     SUNNY     56  37  49 SW6       30.16F
Evansville     MOSUNNY   52  40  63 NE17      30.00S
Indianapolis   MOSUNNY   53  35  50 NE14G24   30.08S
Kansas City    MOSUNNY   54  37  52 NE5       30.18F
Milwaukee      MOSUNNY   58  28  32 W10       30.13S
St Louis       SUNNY     55  34  45 NE9       30.12S
$$





USA.gov is the U.S. government's official web portal to all federal, state and local government web resources and services.